Change the Weather History Date:

Wednesday, October 2, 2013

  Actual Average Record
Temperature  
Mean Temperature 52 °F -  
Max Temperature 71 °F 64 °F 87 °F (1953)
Min Temperature 33 °F 36 °F 13 °F (1974)
Degree Days  
Heating Degree Days 13    
Growing Degree Days 2 (Base 50)    
Moisture  
Dew Point 41 °F    
Average Humidity 77    
Maximum Humidity 100    
Minimum Humidity 27    
Precipitation  
Precipitation 0.00 in - - ()
Sea Level Pressure  
Sea Level Pressure 29.98 in    
Wind  
Wind Speed 3 mph (SE)    
Max Wind Speed 14 mph    
Max Gust Speed 21 mph    
Visibility 10 miles    
Events Rain , Thunderstorm    
Averages and records for this station are not official NWS values.
T = Trace of Precipitation, MM = Missing Value Source: NWS Daily Summary

Daily Weather History Graph

Daily Weather History Graph

Search for Another Location

Airport or City:

Trip Planner

Search our weather history database for the weather conditions in past years. The results will help you decide how hot, cold, wet, or windy it might be!

Date:

Astronomy

Oct. 02, 2013 Rise Set
Actual Time 7:11 AM CDT 6:48 PM CDT
Civil Twilight 6:41 AM CDT 7:18 PM CDT
Nautical Twilight 6:06 AM CDT 7:53 PM CDT
Astronomical Twilight 5:31 AM CDT 8:28 PM CDT
Moon 4:38 AM CDT (10/2) 5:29 PM CDT (10/2)
Length of Visible Light 12h 37m
Length of Day
11h 37m
Waning Crescent, 6% of the Moon is Illuminated
Oct 2
Waning Crescent
Oct 4
New
Oct 11
First Quarter
Oct 18
Full
Oct 26
Last Quarter

Hourly Weather History & Observations

Time (CDT) Temp. Windchill Dew Point Humidity Pressure Visibility Wind Dir Wind Speed Gust Speed Precip Events Conditions
12:06 AM 42.8 °F 41.1 °F 37.4 °F 81% 29.95 in 10.0 mi SW 3.5 mph - N/A   Clear
12:26 AM 44.6 °F 42.2 °F 37.4 °F 76% 29.96 in 10.0 mi SSW 4.6 mph - N/A   Clear
12:46 AM 42.8 °F - 37.4 °F 81% 29.96 in 10.0 mi Calm Calm - N/A   Clear
1:06 AM 41.0 °F 39.0 °F 37.4 °F 87% 29.96 in 10.0 mi SW 3.5 mph - N/A   Clear
1:26 AM 37.4 °F - 35.6 °F 93% 29.96 in 10.0 mi Calm Calm - N/A   Clear
1:46 AM 39.2 °F - 37.4 °F 93% 29.97 in 10.0 mi Calm Calm - N/A   Clear
2:06 AM 37.4 °F - 37.4 °F 100% 29.97 in 10.0 mi Calm Calm - N/A   Clear
2:26 AM 37.4 °F - 35.6 °F 93% 29.98 in 10.0 mi Calm Calm - N/A   Clear
2:46 AM 35.6 °F - 35.6 °F 100% 29.98 in 10.0 mi Calm Calm - N/A   Clear
3:06 AM 37.4 °F - 37.4 °F 100% 29.98 in 10.0 mi Calm Calm - N/A   Clear
3:27 AM 37.4 °F 34.9 °F 35.6 °F 93% 29.98 in 10.0 mi SW 3.5 mph - N/A   Clear
3:46 AM 37.4 °F - 35.6 °F 93% 29.98 in 10.0 mi Calm Calm - N/A   Clear
4:06 AM 35.6 °F - 35.6 °F 100% 29.98 in 10.0 mi Calm Calm - N/A   Clear
4:26 AM 35.6 °F 32.8 °F 35.6 °F 100% 29.99 in 10.0 mi SSW 3.5 mph - N/A   Clear
4:46 AM 35.6 °F - 33.8 °F 93% 29.99 in 10.0 mi Calm Calm - N/A   Clear
5:06 AM 35.6 °F - 33.8 °F 93% 29.99 in 10.0 mi Calm Calm - N/A   Clear
5:26 AM 33.8 °F - 33.8 °F 100% 29.99 in 10.0 mi Calm Calm - N/A   Clear
5:46 AM 33.8 °F - 33.8 °F 100% 30.00 in 10.0 mi Calm Calm - N/A   Clear
6:06 AM 33.8 °F 30.8 °F 33.8 °F 100% 30.01 in 10.0 mi SW 3.5 mph - N/A   Clear
6:26 AM 33.8 °F - 33.8 °F 100% 30.01 in 10.0 mi Calm Calm - N/A   Clear
6:46 AM 33.8 °F - 33.8 °F 100% 30.01 in 10.0 mi Calm Calm - N/A   Clear
7:06 AM 33.8 °F - 33.8 °F 100% 30.01 in 10.0 mi Calm Calm - N/A   Clear
7:26 AM 33.8 °F - 33.8 °F 100% 30.01 in 10.0 mi Calm Calm - N/A   Clear
7:46 AM 33.8 °F - 33.8 °F 100% 30.00 in 10.0 mi Calm Calm - N/A   Clear
8:06 AM 35.6 °F - 35.6 °F 100% 30.00 in 10.0 mi Calm Calm - N/A   Clear
8:26 AM 39.2 °F - 39.2 °F 100% 30.01 in 10.0 mi Calm Calm - N/A   Clear
8:46 AM 42.8 °F 41.1 °F 42.8 °F 100% 30.01 in 10.0 mi WSW 3.5 mph - N/A   Clear
9:06 AM 46.4 °F 45.2 °F 41.0 °F 81% 30.01 in 10.0 mi WSW 3.5 mph - N/A   Clear
9:26 AM 50.0 °F - 42.8 °F 76% 30.02 in 10.0 mi Calm Calm - N/A   Clear
9:46 AM 53.6 °F - 42.8 °F 67% 30.03 in 10.0 mi Calm Calm - N/A   Clear
10:06 AM 59.0 °F - 42.8 °F 55% 30.02 in 10.0 mi Calm Calm - N/A   Scattered Clouds
10:26 AM 59.0 °F - 41.0 °F 51% 30.02 in 10.0 mi SSW 3.5 mph - N/A   Scattered Clouds
10:46 AM 60.8 °F - 42.8 °F 52% 30.02 in 10.0 mi Calm Calm - N/A   Clear
11:06 AM 62.6 °F - 42.8 °F 48% 30.02 in 10.0 mi SW 3.5 mph - N/A   Clear
11:26 AM 64.4 °F - 41.0 °F 42% 30.01 in 10.0 mi SSW 5.8 mph - N/A   Clear
11:46 AM 68.0 °F - 41.0 °F 37% 30.01 in 10.0 mi South 5.8 mph - N/A   Clear
12:06 PM 68.0 °F - 41.0 °F 37% 30.01 in 10.0 mi South 4.6 mph - N/A   Clear
12:26 PM 69.8 °F - 41.0 °F 35% 30.01 in 10.0 mi South 4.6 mph - N/A   Clear
12:46 PM 71.6 °F - 42.8 °F 35% 30.01 in 10.0 mi SSW 8.1 mph - N/A   Clear
1:06 PM 69.8 °F - 37.4 °F 31% 30.00 in 10.0 mi SSW 4.6 mph - N/A   Clear
1:26 PM 69.8 °F - 37.4 °F 31% 29.99 in 10.0 mi SSW 4.6 mph - N/A   Clear
1:46 PM 71.6 °F - 37.4 °F 29% 29.98 in 10.0 mi South 4.6 mph - N/A   Clear
2:06 PM 71.6 °F - 37.4 °F 29% 29.96 in 10.0 mi South 3.5 mph - N/A   Clear
2:26 PM 71.6 °F - 35.6 °F 27% 29.95 in 10.0 mi SE 4.6 mph - N/A   Scattered Clouds
2:46 PM 71.6 °F - 37.4 °F 29% 29.93 in 10.0 mi SE 4.6 mph - N/A   Overcast
3:06 PM 71.6 °F - 39.2 °F 31% 29.92 in 10.0 mi SSE 4.6 mph - N/A Thunderstorm Mostly Cloudy
3:26 PM 69.8 °F - 37.4 °F 31% 29.91 in 10.0 mi SE 4.6 mph - N/A   Scattered Clouds
3:46 PM 69.8 °F - 39.2 °F 33% 29.92 in 10.0 mi Calm Calm - N/A   Mostly Cloudy
4:06 PM 66.2 °F - 41.0 °F 40% 29.95 in 10.0 mi NW 4.6 mph - N/A Rain Light Rain
4:26 PM 62.6 °F - 42.8 °F 48% 29.96 in 10.0 mi WNW 13.8 mph 20.7 mph N/A Rain Light Rain
4:46 PM 60.8 °F - 44.6 °F 55% 29.98 in 10.0 mi NNW 5.8 mph - N/A Rain Light Rain
5:06 PM 55.4 °F - 48.2 °F 77% 29.99 in 4.0 mi NW 8.1 mph - N/A Rain Heavy Rain
5:26 PM 55.4 °F - 48.2 °F 77% 30.00 in 4.0 mi North 3.5 mph - N/A Rain Rain
5:46 PM 53.6 °F - 50.0 °F 88% 29.99 in 7.0 mi NNW 6.9 mph - N/A Rain Heavy Rain
6:06 PM 51.8 °F - 50.0 °F 94% 29.99 in 4.0 mi ENE 3.5 mph - N/A Rain Heavy Rain
6:26 PM 51.8 °F - 50.0 °F 94% 29.96 in 4.0 mi East 5.8 mph - N/A Rain Heavy Rain
6:46 PM 51.8 °F - 50.0 °F 94% 29.98 in 10.0 mi NNE 4.6 mph - N/A Rain Light Rain
7:06 PM 51.8 °F - 50.0 °F 94% 29.98 in 7.0 mi North 5.8 mph - N/A Rain Rain
7:26 PM 51.8 °F - 50.0 °F 94% 29.98 in 10.0 mi NNE 5.8 mph - N/A Rain Rain
7:46 PM 51.8 °F - 50.0 °F 94% 29.99 in 10.0 mi NNE 4.6 mph - N/A Rain Rain
8:06 PM 51.8 °F - 50.0 °F 94% 29.98 in 7.0 mi NNE 8.1 mph - N/A Rain Heavy Rain
8:26 PM 51.8 °F - 50.0 °F 94% 29.98 in 10.0 mi NE 6.9 mph - N/A Rain Rain
8:46 PM 51.8 °F - 50.0 °F 94% 29.97 in 10.0 mi NE 4.6 mph - N/A Rain Rain
9:06 PM 51.8 °F - 50.0 °F 94% 29.97 in 7.0 mi NE 12.7 mph 16.1 mph N/A Rain Rain
9:26 PM 51.8 °F - 50.0 °F 94% 29.97 in 7.0 mi NE 10.4 mph - N/A Rain Rain
9:46 PM 51.8 °F - 50.0 °F 94% 29.96 in 10.0 mi NE 6.9 mph - N/A   Overcast
10:06 PM 51.8 °F - 50.0 °F 94% 29.96 in 10.0 mi ENE 5.8 mph - N/A Rain Light Rain
10:26 PM 51.8 °F - 50.0 °F 94% 29.95 in 10.0 mi NE 6.9 mph - N/A   Overcast
10:46 PM 51.8 °F - 50.0 °F 94% 29.95 in 10.0 mi ENE 5.8 mph - N/A   Overcast
11:06 PM 51.8 °F - 48.2 °F 88% 29.96 in 10.0 mi ENE 5.8 mph - N/A   Overcast
11:26 PM 51.8 °F - 50.0 °F 94% 29.95 in 10.0 mi East 6.9 mph - N/A   Overcast
11:46 PM 51.8 °F - 50.0 °F 94% 29.95 in 10.0 mi ENE 4.6 mph - N/A   Overcast